{"data":{"norad_id":52367,"intl_designator":"2022-045AN","name":"STARLINK-3817","alt_names":[],"object_type":"PAYLOAD","status":"ACTIVE","operator":null,"country":"US","launch_date":"2022-04-29","launch_site_code":"AFETR","launch_vehicle":null,"mission":null,"orbit_class":"UNKNOWN","rcs_meters":null,"size_class":null,"mass_kg":null,"dimensions":null,"purposes":["comms"],"wikipedia_slug":null,"has_3d_model":false,"image_url":null,"decayed_at":null,"tle_current":{"epoch":"2026-09-19T22:54:18.665280Z","epoch_age_seconds":106819,"freshness":"FRESH","line1":"1 52367U 22045AN  26262.95438270  .00000965  00000+0  40673-4 0  9995","line2":"2 52367  53.1613  28.2094 0001201  80.2601 279.8537 15.33551479245364","mean_motion":15.33551479,"eccentricity":0.0001201,"inclination_deg":53.1613,"raan_deg":28.2094,"arg_perigee_deg":80.2601,"mean_anomaly_deg":279.8537,"bstar":4.0673e-5,"rev_number":24536,"period_min":93.899684472216,"perigee_km":464.40449827662,"apogee_km":466.04827416199,"semimajor_km":6843.3633862193,"source":"CELESTRAK","updated_at":"2026-09-20T09:00:40.028051Z"}}}